Terminal Aerodrome Forecast
Issued by NWS Jackson, MS

Home | Current Version | Previous Version | Text Only | Print | Product List | Glossary On
Versions: 1 2 3 4 5 6 7 8 9 10 11 12 13 14 15 16 17
000
FTUS44 KMEG 242300
TAFTUP
TAF
KTUP 242320Z 2500/2524 03003KT P6SM SKC
      TEMPO 2510/2513 3SM BCFG
     FM251500 31003KT P6SM SCT250=

USA.gov is the U.S. government's official web portal to all federal, state and local government web resources and services.